Regional Weather Roundup
Issued by NWS Newport/Morehead, NC

Current Version | Previous Version | Text Only | Print | Product List | Glossary On
Versions: 1 2 3 4 5 6 7 8 9 10 11 12 13 14 15 16 17 18 19 20 21 22 23 24 25 26 27 28 29 30 31 32 33 34 35 36 37 38 39 40 41 42 43 44 45 46 47 48 49 50
000 ASUS42 KMHX 202225 RWRMHX WEATHER ROUNDUP FOR EASTERN NORTH CAROLINA NATIONAL WEATHER SERVICE NEWPORT/MOREHEAD CITY NC 600 PM EDT SUN MAY 20 2018 NOTE: "FAIR" INDICATES FEW OR NO CLOUDS BELOW 12,000 FEET WITH NO SIGNIFICANT WEATHER AND/OR OBSTRUCTIONS TO VISIBILITY NCZ015>017-031-032-045>047-102-103-202300- NORTH COAST CITY SKY/WX TMP DP RH WIND PRES REMARKS EDENTON FAIR 83 72 70 SW7 30.08R ELIZABETH CITY FAIR 82 74 76 S12 30.06S KITTY HAWK FAIR 79 69 71 SW5 30.07S MANTEO FAIR 78 70 76 SW17 30.08F $$ NCZ045>047-081-094-103-104-202300- CENTRAL COAST CITY SKY/WX TMP DP RH WIND PRES REMARKS FRISCO PTSUNNY 76 71 85 SW10 30.12F $$ NCZ095-097-098-100-101-202300- SOUTHERN COAST CITY SKY/WX TMP DP RH WIND PRES REMARKS BEAUFORT FAIR 77 72 84 SW17 30.13F CEDAR ISLAND NOT AVBL JACKSONVILLE PTSUNNY 79 73 82 S10 30.11S PINEY ISLAND NOT AVBL WILMINGTON FAIR 80 68 66 SW13 30.12S $$ NCZ011>013-027>030-043-044-078>080-089-090>093-098-202300- COASTAL PLAIN CITY SKY/WX TMP DP RH WIND PRES REMARKS AHOSKIE FAIR 80 73 78 CALM 30.06S CLINTON FAIR 80 74 82 SW3 30.10S ELIZABETHTOWN FAIR 81 71 71 SW10G16 30.11S GOLDSBORO FAIR N/A N/A N/A SW10 30.08F GREENVILLE FAIR 81 70 69 W8 30.10R HAVELOCK MOSUNNY 81 72 74 SW20 30.12F KENANSVILLE FAIR 81 73 78 CALM 30.11S KINSTON PTSUNNY 82 68 61 S10 30.09F NEW BERN FAIR 80 72 76 SW12 30.11F RICHLANDS FAIR 78 72 81 S8 30.12S ROCKY MOUNT FAIR 81 71 71 SW8 30.07F WASHINGTON FAIR 81 72 74 CALM 30.08S WHITEVILLE FAIR 79 71 77 S5 30.11S $$ AMZ130-135-150-152-154-156-158-170-250-252-270-ANZ085-086-088-633-658-670-202300- MARINE OBSERVATIONS STATION/POSITION TIME TEMP WIND PRES WAVE SWELL AIR SEA DIR/SP/G HT/PER HT/PER (UTC) (F) (DEG/KT/KT) (MB) (FT/S) (FT/S) CHESAPEAKE LIGHT NOT AVBL 64 E VA BEACH 2150 70 67 200/ 16/ 17 1018.6 6/ 8 2/ 8 DUCK 2200 78 57 200/ 15/ 19 1017.6 2 E DUCK 2200 62 N/A 3/ 8 OREGON INLET 2200 77 77 200/ 24/ 27 1018.5 13E OREGON INLT 2148 65 N/A 5/ 7 3/ 8 HATTERAS CG 2200 74 76 210/ 12/ 15 1019.6 DIAMOND BUOY 2210 75 76 200/ 17/ 21 1020.5 CAPE LOOKOUT 2200 220/ 10/ 14 1020.6 BEAUFORT LAB 2200 76 77 210/ 11/ 16 1020.4 30 SE NEW RVR IN 2208 76 220/ 12/ 17 1020.6 30 SE NEW RVR IN 2200 76 N/A 7/ 8 2/11 27 SE WRIGHTSVLE 2208 74 74 220/ 14/ 19 1020.8 5 SE WRIGHTSVLE NOT AVBL 225 S CAPE HAT 2210 77 170/ 12/ 16 1022.3 41 SE CHARLESTON 2210 74 200/ 8/ 10 1020.9 $$

USA.gov is the U.S. government's official web portal to all federal, state and local government web resources and services.